TimeCST,TemperatureF,Dew PointF,Humidity,Sea Level PressureIn,VisibilityMPH,Wind Direction,Wind SpeedMPH,Gust SpeedMPH,PrecipitationIn,Events,Conditions,WindDirDegrees,DateUTC
12:53 AM,66.9,63.0,87,29.82,10.0,South,9.2,-,N/A,,Clear,190,2012-12-09 06:53:00
1:53 AM,66.9,63.0,87,29.82,10.0,South,12.7,-,N/A,,Mostly Cloudy,190,2012-12-09 07:53:00
2:01 AM,66.2,62.6,88,29.84,10.0,South,11.5,-,N/A,,Mostly Cloudy,190,2012-12-09 08:01:00
2:49 AM,66.2,62.6,88,29.83,10.0,South,9.2,-,N/A,,Overcast,190,2012-12-09 08:49:00
2:53 AM,66.9,64.0,90,29.82,10.0,South,10.4,-,N/A,,Overcast,190,2012-12-09 08:53:00
3:53 AM,66.9,64.0,90,29.82,10.0,South,8.1,-,N/A,,Overcast,180,2012-12-09 09:53:00
4:53 AM,68.0,64.0,87,29.82,10.0,South,9.2,-,N/A,,Overcast,190,2012-12-09 10:53:00
5:15 AM,69.8,64.4,83,29.84,10.0,South,10.4,-,N/A,,Overcast,190,2012-12-09 11:15:00
5:53 AM,69.1,64.0,84,29.83,10.0,South,10.4,-,N/A,,Overcast,190,2012-12-09 11:53:00
6:53 AM,69.1,64.0,84,29.83,10.0,South,10.4,-,N/A,,Overcast,190,2012-12-09 12:53:00
7:53 AM,70.0,64.0,81,29.84,8.0,South,11.5,-,N/A,,Overcast,190,2012-12-09 13:53:00
8:53 AM,70.0,64.0,81,29.85,8.0,South,11.5,-,N/A,,Overcast,190,2012-12-09 14:53:00
9:53 AM,71.1,64.0,78,29.87,8.0,SSW,11.5,-,N/A,,Overcast,200,2012-12-09 15:53:00
10:53 AM,75.0,64.0,69,29.86,8.0,South,13.8,-,N/A,,Mostly Cloudy,190,2012-12-09 16:53:00
11:42 AM,75.2,64.4,69,29.84,8.0,SSW,19.6,-,N/A,,Scattered Clouds,200,2012-12-09 17:42:00
11:53 AM,75.0,64.0,69,29.82,7.0,SSW,19.6,-,N/A,,Partly Cloudy,200,2012-12-09 17:53:00
12:53 PM,75.9,63.0,64,29.80,8.0,SSW,12.7,-,N/A,,Mostly Cloudy,210,2012-12-09 18:53:00
1:53 PM,75.9,63.0,64,29.78,9.0,SW,11.5,-,N/A,,Partly Cloudy,220,2012-12-09 19:53:00
2:53 PM,75.0,63.0,66,29.76,8.0,South,8.1,-,0.00,Rain,Light Rain,190,2012-12-09 20:53:00
3:01 PM,73.4,62.6,69,29.79,9.0,South,6.9,-,0.00,Rain-Thunderstorm,Light Rain,190,2012-12-09 21:01:00
3:17 PM,71.6,64.4,78,29.80,1.8,SSW,12.7,-,0.10,Rain-Thunderstorm,Heavy Thunderstorms and Rain,210,2012-12-09 21:17:00
3:27 PM,66.2,62.6,88,29.83,0.8,WSW,15.0,21.9,0.38,Rain-Thunderstorm,Heavy Thunderstorms and Rain,240,2012-12-09 21:27:00
3:37 PM,64.4,60.8,88,29.81,1.0,SW,8.1,24.2,0.57,Rain-Thunderstorm,Heavy Thunderstorms and Rain,220,2012-12-09 21:37:00
3:45 PM,64.4,60.8,88,29.81,3.0,West,8.1,-,0.58,Rain-Thunderstorm,Light Thunderstorms and Rain,260,2012-12-09 21:45:00
3:53 PM,64.9,62.1,90,29.81,10.0,WSW,5.8,-,0.58,Thunderstorm,Thunderstorm,250,2012-12-09 21:53:00
4:14 PM,66.2,62.6,88,29.81,9.0,WNW,3.5,-,0.00,Rain,Light Rain,290,2012-12-09 22:14:00
4:53 PM,64.9,57.0,75,29.80,9.0,NNW,12.7,-,0.00,,Partly Cloudy,340,2012-12-09 22:53:00
5:53 PM,61.0,48.9,64,29.83,10.0,NW,11.5,-,N/A,,Mostly Cloudy,320,2012-12-09 23:53:00
6:53 PM,57.9,50.0,75,29.84,10.0,NNW,11.5,-,N/A,,Scattered Clouds,340,2012-12-10 00:53:00
7:53 PM,55.0,48.0,77,29.86,10.0,NNW,13.8,21.9,N/A,,Partly Cloudy,340,2012-12-10 01:53:00
8:53 PM,54.0,45.0,72,29.89,10.0,NNW,11.5,21.9,N/A,,Partly Cloudy,340,2012-12-10 02:53:00
9:53 PM,53.1,44.1,71,29.92,10.0,NNW,10.4,-,N/A,,Overcast,340,2012-12-10 03:53:00
10:53 PM,53.1,43.0,69,29.93,10.0,North,11.5,-,N/A,,Overcast,350,2012-12-10 04:53:00
11:53 PM,50.0,39.9,68,29.94,10.0,NNW,17.3,24.2,N/A,,Scattered Clouds,340,2012-12-10 05:53:00